When you browse on this site, cookies collect data to enhance your experience and personalize the content and advertising you see.
Visit our Privacy Policy to learn more. By continuing to use the site, you agree to this use of cookies and data.
  • En España
  • Lista de países
  • Para 7 días
  • Temperatura del agua
  • El tiempo en el mapa
  • Informadores
  • user-avatar
    Iniciar sesión

    Tiempo cada hora Bijsk

    Hoy, 4 Junio, Jueves

    Tiempo Temperatura Precipitaciones Viento Presión Humedad
    00:00 +13°C° 0 mm 1 mps 742 mmHg 75%
    01:00 +12°C° 0 mm 1 mps 742 mmHg 77%
    02:00 +12°C° 0 mm 1 mps 742 mmHg 79%
    03:00 +11°C° 0 mm 1 mps 742 mmHg 80%
    04:00 +12°C° 0 mm 1 mps 742 mmHg 80%
    05:00 +12°C° 0 mm 1 mps 742 mmHg 79%
    06:00 +13°C° 0 mm 1 mps 741 mmHg 78%
    07:00 +14°C° 0.2 mm 1 mps 741 mmHg 73%
    08:00 +16°C° 0.2 mm 2 mps 741 mmHg 67%
    09:00 +17°C° 0.2 mm 2 mps 741 mmHg 62%
    10:00 +18°C° 0.1 mm 2 mps 741 mmHg 58%
    11:00 +18°C° 0.1 mm 3 mps 741 mmHg 55%
    12:00 +19°C° 0.1 mm 3 mps 741 mmHg 51%
    13:00 +19°C° 0.3 mm 3 mps 741 mmHg 55%
    14:00 +18°C° 0.3 mm 3 mps 740 mmHg 58%
    15:00 +18°C° 0.3 mm 4 mps 740 mmHg 61%
    16:00 +17°C° 0.3 mm 3 mps 740 mmHg 63%
    17:00 +17°C° 0.3 mm 3 mps 740 mmHg 65%
    18:00 +17°C° 0.3 mm 2 mps 740 mmHg 66%
    19:00 +15°C° 0.3 mm 2 mps 740 mmHg 71%
    20:00 +14°C° 0.3 mm 1 mps 740 mmHg 76%
    21:00 +13°C° 0.3 mm 1 mps 740 mmHg 80%
    22:00 +12°C° 0.2 mm 1 mps 740 mmHg 81%
    23:00 +12°C° 0.2 mm 1 mps 740 mmHg 83%

    Mañana, 5 Junio, Viernes

    Tiempo Temperatura Precipitaciones Viento Presión Humedad
    00:00 +11°C° 0.2 mm 1 mps 739 mmHg 84%
    01:00 +10°C° 0 mm 1 mps 739 mmHg 85%
    02:00 +9°C° 0 mm 1 mps 739 mmHg 85%
    03:00 +8°C° 0 mm 1 mps 738 mmHg 86%
    04:00 +9°C° 0 mm 1 mps 739 mmHg 86%
    05:00 +8°C° 0 mm 2 mps 739 mmHg 85%
    06:00 +9°C° 0 mm 2 mps 739 mmHg 85%
    07:00 +10°C° 0.1 mm 2 mps 739 mmHg 80%
    08:00 +11°C° 0.1 mm 3 mps 738 mmHg 76%
    09:00 +12°C° 0.1 mm 3 mps 738 mmHg 72%
    10:00 +12°C° 0.5 mm 4 mps 738 mmHg 72%
    11:00 +12°C° 0.5 mm 5 mps 739 mmHg 72%
    12:00 +12°C° 0.5 mm 5 mps 739 mmHg 73%
    13:00 +11°C° 0.6 mm 6 mps 739 mmHg 73%
    14:00 +11°C° 0.6 mm 6 mps 739 mmHg 74%
    15:00 +11°C° 0.6 mm 6 mps 739 mmHg 74%
    16:00 +12°C° 0.3 mm 5 mps 740 mmHg 75%
    17:00 +11°C° 0.3 mm 4 mps 741 mmHg 75%
    18:00 +11°C° 0.3 mm 4 mps 741 mmHg 76%
    19:00 +10°C° 0.1 mm 3 mps 741 mmHg 81%
    20:00 +8°C° 0.1 mm 3 mps 742 mmHg 86%
    21:00 +7°C° 0.1 mm 3 mps 742 mmHg 91%
    22:00 +5°C° 0 mm 3 mps 743 mmHg 92%
    23:00 +5°C° 0 mm 3 mps 743 mmHg 93%

    Pasado mañana, 6 Junio, Sábado

    Tiempo Temperatura Precipitaciones Viento Presión Humedad
    00:00 +4°C° 0 mm 3 mps 744 mmHg 94%
    01:00 +5°C° 0 mm 4 mps 744 mmHg 93%
    02:00 +5°C° 0 mm 4 mps 744 mmHg 92%
    03:00 +5°C° 0 mm 4 mps 744 mmHg 92%
    04:00 +5°C° 0.1 mm 4 mps 745 mmHg 91%
    05:00 +6°C° 0.1 mm 5 mps 745 mmHg 91%
    06:00 +6°C° 0.1 mm 5 mps 746 mmHg 90%
    07:00 +6°C° 0.5 mm 5 mps 746 mmHg 92%
    08:00 +7°C° 0.5 mm 5 mps 745 mmHg 93%
    09:00 +7°C° 0.5 mm 5 mps 745 mmHg 94%
    10:00 +7°C° 1.1 mm 6 mps 745 mmHg 93%
    11:00 +7°C° 1.1 mm 6 mps 746 mmHg 92%
    12:00 +6°C° 1.1 mm 7 mps 746 mmHg 91%
    13:00 +7°C° 0.3 mm 6 mps 746 mmHg 91%
    14:00 +7°C° 0.3 mm 6 mps 745 mmHg 91%
    15:00 +7°C° 0.3 mm 5 mps 745 mmHg 90%
    16:00 +8°C° 0.1 mm 5 mps 746 mmHg 91%
    17:00 +9°C° 0.1 mm 5 mps 746 mmHg 91%
    18:00 +10°C° 0.1 mm 5 mps 746 mmHg 91%
    19:00 +10°C° 0.3 mm 5 mps 746 mmHg 92%
    20:00 +10°C° 0.3 mm 4 mps 746 mmHg 93%
    21:00 +10°C° 0.3 mm 4 mps 746 mmHg 95%
    22:00 +10°C° 0.2 mm 3 mps 747 mmHg 95%
    23:00 +9°C° 0.2 mm 3 mps 747 mmHg 96%

    7 Junio, Domingo

    Tiempo Temperatura Precipitaciones Viento Presión Humedad
    00:00 +9°C° 0.2 mm 2 mps 747 mmHg 96%
    01:00 +8°C° 0.1 mm 2 mps 747 mmHg 96%
    02:00 +8°C° 0.1 mm 2 mps 747 mmHg 96%
    03:00 +8°C° 0.1 mm 2 mps 747 mmHg 96%
    04:00 +8°C° 0 mm 2 mps 748 mmHg 96%
    05:00 +8°C° 0 mm 2 mps 748 mmHg 95%
    06:00 +8°C° 0 mm 2 mps 749 mmHg 95%
    07:00 +9°C° 0 mm 2 mps 749 mmHg 92%
    08:00 +10°C° 0 mm 2 mps 749 mmHg 90%
    09:00 +12°C° 0 mm 2 mps 750 mmHg 87%
    10:00 +13°C° 0.1 mm 2 mps 749 mmHg 81%
    11:00 +15°C° 0.1 mm 2 mps 749 mmHg 76%
    12:00 +16°C° 0.1 mm 2 mps 749 mmHg 70%
    13:00 +17°C° 0 mm 2 mps 749 mmHg 66%
    14:00 +18°C° 0 mm 2 mps 749 mmHg 62%
    15:00 +19°C° 0 mm 2 mps 749 mmHg 57%
    16:00 +18°C° 0.3 mm 2 mps 749 mmHg 63%
    17:00 +18°C° 0.3 mm 2 mps 749 mmHg 69%
    18:00 +18°C° 0.3 mm 3 mps 749 mmHg 75%
    19:00 +16°C° 0.4 mm 2 mps 749 mmHg 80%
    20:00 +14°C° 0.4 mm 2 mps 749 mmHg 85%
    21:00 +13°C° 0.4 mm 2 mps 749 mmHg 90%
    22:00 +12°C° 0.1 mm 2 mps 750 mmHg 90%
    23:00 +12°C° 0.1 mm 2 mps 750 mmHg 91%

    8 Junio, Lunes

    Tiempo Temperatura Precipitaciones Viento Presión Humedad
    00:00 +12°C° 0.1 mm 2 mps 750 mmHg 91%
    01:00 +10°C° 0 mm 2 mps 750 mmHg 92%
    02:00 +10°C° 0 mm 2 mps 750 mmHg 92%
    03:00 +10°C° 0 mm 1 mps 750 mmHg 92%
    04:00 +10°C° 0 mm 2 mps 750 mmHg 92%
    05:00 +10°C° 0 mm 2 mps 750 mmHg 91%
    06:00 +12°C° 0 mm 2 mps 750 mmHg 90%
    07:00 +14°C° 0.1 mm 2 mps 750 mmHg 86%
    08:00 +14°C° 0.1 mm 3 mps 749 mmHg 82%
    09:00 +17°C° 0.1 mm 3 mps 749 mmHg 79%
    10:00 +18°C° 0.3 mm 3 mps 749 mmHg 72%
    11:00 +19°C° 0.3 mm 3 mps 748 mmHg 65%
    12:00 +21°C° 0.3 mm 3 mps 748 mmHg 59%
    13:00 +21°C° 0.1 mm 4 mps 747 mmHg 58%
    14:00 +21°C° 0.1 mm 4 mps 747 mmHg 58%
    15:00 +22°C° 0.1 mm 5 mps 747 mmHg 58%
    16:00 +21°C° 0.3 mm 4 mps 746 mmHg 63%
    17:00 +21°C° 0.3 mm 4 mps 746 mmHg 67%
    18:00 +20°C° 0.3 mm 4 mps 746 mmHg 72%
    19:00 +19°C° 0.1 mm 4 mps 746 mmHg 77%
    20:00 +17°C° 0.1 mm 4 mps 745 mmHg 82%
    21:00 +14°C° 0.1 mm 3 mps 745 mmHg 87%
    22:00 +14°C° 0.1 mm 4 mps 745 mmHg 88%
    23:00 +13°C° 0.1 mm 4 mps 745 mmHg 88%

    9 Junio, Martes

    Tiempo Temperatura Precipitaciones Viento Presión Humedad
    00:00 +13°C° 0.1 mm 4 mps 744 mmHg 88%
    01:00 +13°C° 0 mm 4 mps 744 mmHg 87%
    02:00 +13°C° 0 mm 4 mps 744 mmHg 86%
    03:00 +13°C° 0 mm 4 mps 744 mmHg 86%
    04:00 +13°C° 0.2 mm 4 mps 744 mmHg 86%
    05:00 +13°C° 0.2 mm 4 mps 743 mmHg 87%
    06:00 +13°C° 0.2 mm 4 mps 743 mmHg 88%
    07:00 +13°C° 2.3 mm 4 mps 743 mmHg 91%
    08:00 +13°C° 2.3 mm 4 mps 743 mmHg 94%
    09:00 +13°C° 2.3 mm 4 mps 743 mmHg 97%
    10:00 +14°C° 0.4 mm 4 mps 743 mmHg 95%
    11:00 +14°C° 0.4 mm 3 mps 744 mmHg 94%
    12:00 +16°C° 0.4 mm 3 mps 744 mmHg 92%
    13:00 +18°C° 0.8 mm 3 mps 744 mmHg 87%
    14:00 +19°C° 0.8 mm 2 mps 744 mmHg 82%
    15:00 +20°C° 0.8 mm 2 mps 744 mmHg 77%
    16:00 +20°C° 0.6 mm 2 mps 744 mmHg 78%
    17:00 +20°C° 0.6 mm 2 mps 744 mmHg 80%
    18:00 +19°C° 0.6 mm 2 mps 744 mmHg 81%
    19:00 +18°C° 0.4 mm 2 mps 744 mmHg 84%
    20:00 +16°C° 0.4 mm 2 mps 744 mmHg 86%
    21:00 +14°C° 0.4 mm 2 mps 744 mmHg 89%
    22:00 +13°C° 0.1 mm 2 mps 744 mmHg 89%
    23:00 +12°C° 0.1 mm 2 mps 745 mmHg 90%
    Mostrar más